Voltar ao catálogo

CZ-6A DEB

AtivoPO
NORAD 61112·DEBRIS·🇨🇳 China

Lançado Aug 6, 2024 de Taiyuan Satellite Launch Center

Loading…

Próximas Passagens (próximas 24 horas)

TLE

AtualizadoSource: Space-Track

Época: Sep 14, 2026, 06:51 UTC

1 61112U 24140PE  26257.28550954  .00002916  00000-0  63081-3 0  9991
2 61112  89.0285 262.9756 0060951 292.7384  66.7392 14.56888485109334

Acompanhe CZ-6A DEB em tempo real com AllMySat

Download on the App Store